[[{"header":{"parameterUnit":"m.s-1","parameterCategory":1,"la1":30.2991,"la2":30.254,"lo1":-89.0895,"lo2":-89.0444,"dy":0.0017,"dx":0.0017,"nx":28,"ny":28,"refTime":"2023-09-14T21:00:00:Z","depth":0,"parameterNumber":2,"parameterNumberName":"U-component_of_WINDS"},"data":[0,0,0,0,0,0,0,0,0,0,0,0,0,0,0,0,0,0,0,0,0,0,0,0,0,0,0,0,0,0,0,0,0,0,0,0,0,0,0,0,0,0,0,0,0,0,0,0,0,0,0,0,0,0,0,0,0,0,-1.7071,-1.707,0,-1.6968,-1.6967,-1.6966,-1.6876,-1.6875,-1.6874,-1.6873,-1.6766,-1.6764,-1.6762,0,0,0,0,0,0,0,0,0,0,0,0,0,-1.7189,-1.7187,-1.7071,-1.707,-1.7069,-1.6968,-1.6967,-1.6965,-1.6876,-1.6875,-1.6873,-1.6872,-1.6766,-1.6764,-1.6762,0,0,0,0,0,0,0,0,0,0,0,0,0,-1.7117,-1.7187,-1.7072,-1.7012,-1.7006,-1.6969,-1.6967,-1.6965,-1.6876,-1.6875,-1.6873,-1.6872,-1.6767,-1.6764,-1.6762,-1.6775,0,0,-1.6753,-1.6752,0,0,0,0,0,0,0,0,-1.7121,-1.7113,-1.7022,-1.7016,-1.7009,-1.6933,-1.6969,-1.6901,-1.6877,-1.6925,-1.6873,-1.6871,-1.6823,-1.6815,-1.6799,-1.677,-1.6765,-1.6753,-1.6751,-1.675,-1.6749,0,0,0,0,0,0,0,-1.7127,-1.7117,-1.703,-1.7021,-1.7013,-1.699,-1.6978,-1.6956,-1.6884,-1.6921,-1.6914,-1.6903,-1.6819,-1.6802,-1.6796,-1.6764,-1.6753,-1.675,-1.6748,-1.6747,-1.6739,-1.674,0,0,0,0,0,0,-1.7141,-1.7122,-1.7034,-1.7027,-1.7063,-1.6989,-1.6976,-1.6959,-1.6884,-1.6871,-1.6905,-1.6899,-1.6808,-1.6799,-1.6792,-1.6801,-1.675,-1.6747,-1.6745,-1.6737,-1.6739,-1.674,0,0,0,0,0,0,-1.7144,-1.7134,-1.7038,-1.7073,-1.7059,-1.6989,-1.6971,-1.6958,-1.6941,-1.6871,-1.6858,-1.6901,-1.6806,-1.6796,-1.6779,-1.6797,-1.6746,-1.6743,-1.6735,-1.6738,-1.674,-1.6822,0,0,0,0,0,0,-1.7148,-1.7135,-1.714,-1.7073,-1.7057,-1.7028,-1.6972,-1.6957,-1.6936,-1.6929,-1.6864,-1.6852,-1.6804,-1.6784,-1.6777,-1.6792,-1.6741,-1.6734,-1.6736,-1.6739,-1.6817,-1.6827,-1.6835,0,0,0,0,0,-1.7152,-1.7167,-1.7141,-1.7131,-1.7062,-1.7029,-1.702,-1.6964,-1.6938,-1.6942,-1.6897,-1.6854,-1.6796,-1.6783,-1.6774,-1.6789,-1.6732,-1.6736,-1.6739,-1.6814,-1.6825,-1.6834,0,0,0,0,0,0,-1.7238,-1.7158,-1.7127,-1.7122,-1.7083,-1.7014,-1.7017,-1.6978,-1.6946,-1.694,-1.6872,-1.6858,-1.6849,-1.6817,-1.6804,-1.6797,-1.6758,-1.676,-1.6818,-1.6828,-1.6837,-1.6845,-1.6739,0,0,0,0,0,-1.7256,-1.7237,-1.7168,-1.7169,-1.7152,-1.7088,-1.7072,-1.7033,-1.699,-1.6973,-1.6926,-1.6886,-1.6858,-1.6842,-1.6812,-1.6812,-1.6796,-1.6818,-1.6826,-1.6834,-1.6836,-1.6832,-1.6841,-1.6751,-1.6751,-1.6751,0,0,-1.7294,-1.7248,-1.724,-1.7186,-1.7151,-1.7132,-1.7075,-1.7057,-1.7043,-1.697,-1.6951,-1.6916,-1.6866,-1.6858,-1.6852,-1.6831,-1.6857,-1.6838,-1.6844,-1.6842,-1.6837,-1.6845,-1.6853,-1.6754,-1.6753,-1.6753,0,0,-1.7353,-1.7316,-1.7313,-1.728,-1.7228,-1.7185,-1.7185,-1.7122,-1.7096,-1.7076,-1.7021,-1.7002,-1.6956,-1.6923,-1.69,-1.6945,-1.6904,-1.6938,-1.6983,-1.698,-1.6987,-1.6993,-1.7009,-1.7015,-1.694,-1.694,-1.694,0,-1.7406,-1.7376,-1.7316,-1.7302,-1.728,-1.7213,-1.7209,-1.7179,-1.7121,-1.7107,-1.7084,-1.7024,-1.6986,-1.6969,-1.698,-1.6964,-1.696,-1.6945,-1.6991,-1.6996,-1.7001,-1.7015,-1.7021,-1.6944,-1.6944,-1.6944,-1.6943,0,-1.7443,-1.7423,-1.7427,-1.7372,-1.735,-1.7341,-1.728,-1.7265,-1.7227,-1.7187,-1.7167,-1.7119,-1.7079,-1.7072,-1.7035,-1.7049,-1.7037,-1.7004,-1.6964,-1.7015,-1.7027,-1.7032,-1.6951,-1.6949,-1.6948,-1.6947,0,0,-1.7553,-1.7466,-1.7468,-1.7442,-1.738,-1.7363,-1.7351,-1.7312,-1.7299,-1.7261,-1.7248,-1.7211,-1.7179,-1.7153,-1.7112,-1.711,-1.7148,-1.7076,-1.7074,-1.7091,-1.716,-1.7185,-1.7193,-1.7121,-1.7122,-1.7122,-1.7164,0,-1.7602,-1.7576,-1.7522,-1.7514,-1.7494,-1.743,-1.7419,-1.738,-1.7342,-1.7319,-1.7276,-1.725,-1.7211,-1.7195,-1.719,-1.7145,-1.7161,-1.7141,-1.7108,-1.7107,-1.7122,-1.7199,-1.7226,-1.7267,-1.7168,-1.7169,-1.7169,0,-1.7655,-1.7621,-1.761,-1.7549,-1.7538,-1.753,-1.7489,-1.7468,-1.7421,-1.7394,-1.7365,-1.7319,-1.7302,-1.7265,-1.724,-1.7227,-1.721,-1.7186,-1.7186,-1.7181,-1.7142,-1.7195,-1.7279,-1.7286,-1.7176,-1.7176,-1.7175,0,-1.7736,-1.7687,-1.7674,-1.7654,-1.7582,-1.7577,-1.7547,-1.7499,-1.7479,-1.7443,-1.7429,-1.7391,-1.7371,-1.7342,-1.7288,-1.7266,-1.7268,-1.7227,-1.7244,-1.7246,-1.7247,-1.7248,-1.733,-1.7237,-1.7237,-1.7237,-1.7237,0,-1.7795,-1.7791,-1.771,-1.7702,-1.7695,-1.7633,-1.7628,-1.7591,-1.7549,-1.7532,-1.7475,-1.746,-1.7389,-1.7366,-1.7322,-1.7308,-1.7299,-1.7275,-1.7264,-1.728,-1.7284,-1.7268,-1.7264,-1.7239,-1.7238,-1.7238,-1.7238,0,-1.7885,-1.783,-1.7812,-1.7745,-1.7728,-1.7726,-1.7669,-1.7658,-1.7617,-1.7596,-1.7588,-1.7522,-1.7492,-1.7434,-1.7388,-1.7359,-1.7353,-1.7334,-1.7369,-1.7362,-1.7382,-1.7381,-1.7457,-1.7464,-1.7368,-1.7369,-1.737,0,-1.7926,-1.7922,-1.7855,-1.784,-1.7812,-1.7788,-1.7767,-1.7705,-1.7685,-1.7631,-1.7627,-1.7593,-1.7562,-1.7516,-1.7464,-1.7428,-1.7406,-1.7435,-1.7401,-1.7417,-1.7406,-1.7407,-1.7406,-1.7443,-1.7445,-1.7446,-1.7447,0,-1.8006,-1.7979,-1.7951,-1.7913,-1.789,-1.7857,-1.7821,-1.7812,-1.7742,-1.7722,-1.7691,-1.7667,-1.762,-1.7586,-1.7542,-1.7509,-1.7466,-1.7458,-1.746,-1.7477,-1.7498,-1.7486,-1.7391,-1.7457,-1.7456,-1.7455,-1.7454,-1.7454,-1.8072,-1.8065,-1.8016,-1.7987,-1.7953,-1.7921,-1.7908,-1.7865,-1.7838,-1.7795,-1.7759,-1.7731,-1.7683,-1.762,-1.759,-1.7566,-1.7545,-1.7548,-1.7549,-1.7551,-1.7557,-1.7502,-1.7558,-1.7557,-1.7557,-1.7557,-1.7556,0,-1.8148,-1.8114,-1.8087,-1.8039,-1.8016,-1.7978,-1.7936,-1.7919,-1.7894,-1.7854,-1.7824,-1.7788,-1.7754,-1.7699,-1.7661,-1.7653,-1.7632,-1.7645,-1.7644,-1.7637,-1.7578,-1.758,-1.7662,-1.7662,-1.7662,-1.7662,-1.7662,-1.7662,-1.8185,-1.817,-1.8138,-1.8106,-1.8071,-1.8043,-1.8022,-1.7992,-1.7959,-1.7921,-1.7893,-1.7857,-1.7811,-1.7768,-1.7736,-1.772,-1.7709,-1.7728,-1.7706,-1.7652,-1.7642,-1.7632,-1.7634,-1.7726,-1.7726,-1.7767,-1.7768,-1.7768]},{"header":{"parameterUnit":"m.s-1","parameterCategory":1,"la1":30.2991,"la2":30.254,"lo1":-89.0895,"lo2":-89.0444,"dy":0.0017,"dx":0.0017,"nx":28,"ny":28,"refTime":"2023-09-14T21:00:00:Z","depth":0,"parameterNumber":3,"parameterNumberName":"V-component_of_WINDS"},"data":[0,0,0,0,0,0,0,0,0,0,0,0,0,0,0,0,0,0,0,0,0,0,0,0,0,0,0,0,0,0,0,0,0,0,0,0,0,0,0,0,0,0,0,0,0,0,0,0,0,0,0,0,0,0,0,0,0,0,-2.1131,-2.1131,0,-2.1168,-2.1168,-2.1168,-2.1168,-2.1168,-2.1167,-2.1167,-2.1201,-2.1203,-2.1204,0,0,0,0,0,0,0,0,0,0,0,0,0,-2.1056,-2.1058,-2.1131,-2.1131,-2.1132,-2.1167,-2.1168,-2.1168,-2.1168,-2.1168,-2.1167,-2.1167,-2.1201,-2.1202,-2.1204,0,0,0,0,0,0,0,0,0,0,0,0,0,-2.109,-2.1058,-2.1131,-2.1136,-2.1137,-2.1167,-2.1168,-2.1169,-2.1168,-2.1168,-2.1167,-2.1166,-2.12,-2.1202,-2.1204,-2.1231,0,0,-2.121,-2.1211,0,0,0,0,0,0,0,0,-2.1088,-2.1093,-2.1135,-2.1136,-2.1137,-2.1163,-2.1154,-2.1189,-2.1169,-2.1156,-2.1167,-2.1166,-2.1189,-2.1192,-2.12,-2.1233,-2.1234,-2.1211,-2.1212,-2.1213,-2.1213,0,0,0,0,0,0,0,-2.1086,-2.1091,-2.1145,-2.1135,-2.1136,-2.1135,-2.1139,-2.1161,-2.1176,-2.1157,-2.1157,-2.1162,-2.1189,-2.1198,-2.1201,-2.1235,-2.1211,-2.1212,-2.1214,-2.1214,-2.129,-2.1291,0,0,0,0,0,0,-2.1083,-2.1089,-2.1144,-2.1146,-2.111,-2.1137,-2.1142,-2.1155,-2.1176,-2.1178,-2.1162,-2.1162,-2.1195,-2.1198,-2.1202,-2.1235,-2.1213,-2.1215,-2.1216,-2.129,-2.1291,-2.1291,0,0,0,0,0,0,-2.1081,-2.1088,-2.1142,-2.1118,-2.1125,-2.1139,-2.1154,-2.1156,-2.1165,-2.118,-2.1182,-2.1169,-2.1195,-2.1199,-2.1224,-2.1236,-2.1216,-2.1217,-2.1289,-2.129,-2.1291,-2.13,0,0,0,0,0,0,-2.1079,-2.1087,-2.1099,-2.1118,-2.1126,-2.1165,-2.1155,-2.1157,-2.1169,-2.1168,-2.1187,-2.1189,-2.1194,-2.1221,-2.1226,-2.1238,-2.1219,-2.1288,-2.1289,-2.1291,-2.1299,-2.1302,-2.1304,0,0,0,0,0,-2.1077,-2.1099,-2.1099,-2.1106,-2.1141,-2.1166,-2.117,-2.1177,-2.117,-2.1181,-2.119,-2.1188,-2.1234,-2.1223,-2.1229,-2.1242,-2.1287,-2.1289,-2.1291,-2.1298,-2.1301,-2.1304,0,0,0,0,0,0,-2.108,-2.1102,-2.1102,-2.1132,-2.1147,-2.1166,-2.118,-2.118,-2.1197,-2.1195,-2.1202,-2.1206,-2.1231,-2.1239,-2.1227,-2.1269,-2.1259,-2.1262,-2.1263,-2.1266,-2.1269,-2.1266,-2.1221,0,0,0,0,0,-2.1084,-2.1104,-2.1121,-2.1146,-2.1153,-2.1165,-2.1176,-2.118,-2.1196,-2.1202,-2.1213,-2.1227,-2.1244,-2.1256,-2.1272,-2.13,-2.1304,-2.1312,-2.1314,-2.1316,-2.1319,-2.1333,-2.1337,-2.1297,-2.1297,-2.1297,0,0,-2.1093,-2.1107,-2.1119,-2.1147,-2.1159,-2.1178,-2.1171,-2.1191,-2.1205,-2.1204,-2.1229,-2.1237,-2.1253,-2.128,-2.1292,-2.1287,-2.133,-2.1318,-2.132,-2.1321,-2.1336,-2.1339,-2.1343,-2.1299,-2.1298,-2.1298,0,0,-2.1118,-2.1132,-2.1153,-2.1166,-2.1185,-2.1192,-2.1197,-2.1216,-2.1222,-2.1247,-2.1247,-2.1262,-2.1292,-2.1304,-2.1314,-2.1343,-2.1342,-2.1348,-2.1361,-2.1375,-2.1379,-2.1381,-2.1392,-2.1395,-2.135,-2.1351,-2.1351,0,-2.1127,-2.1157,-2.1164,-2.1185,-2.1197,-2.1198,-2.122,-2.1231,-2.1254,-2.1261,-2.1256,-2.1294,-2.1304,-2.1333,-2.1341,-2.1348,-2.1354,-2.1346,-2.1378,-2.1381,-2.1383,-2.1393,-2.1397,-2.1351,-2.1351,-2.1351,-2.1351,0,-2.1166,-2.1186,-2.1201,-2.1225,-2.1238,-2.1259,-2.1269,-2.1281,-2.1283,-2.1291,-2.1316,-2.1329,-2.1348,-2.1355,-2.1357,-2.1384,-2.1381,-2.1377,-2.1367,-2.1388,-2.1397,-2.1401,-2.1352,-2.1352,-2.1352,-2.1352,0,0,-2.1195,-2.1222,-2.1228,-2.1238,-2.1259,-2.1274,-2.1294,-2.1314,-2.1325,-2.134,-2.1357,-2.1382,-2.1378,-2.1389,-2.1392,-2.1405,-2.1427,-2.1399,-2.1399,-2.1404,-2.1457,-2.146,-2.1464,-2.1426,-2.1427,-2.1428,-2.1455,0,-2.1223,-2.1261,-2.1268,-2.1301,-2.1319,-2.132,-2.1338,-2.1352,-2.1359,-2.1375,-2.1383,-2.1401,-2.1394,-2.1401,-2.1413,-2.1422,-2.1438,-2.142,-2.1441,-2.1442,-2.1438,-2.1469,-2.1473,-2.1499,-2.1459,-2.146,-2.146,0,-2.1261,-2.1279,-2.1313,-2.1331,-2.1339,-2.1355,-2.1374,-2.1389,-2.1404,-2.1409,-2.1421,-2.1423,-2.1443,-2.1432,-2.1459,-2.1447,-2.1456,-2.1461,-2.1462,-2.1465,-2.1453,-2.1473,-2.1507,-2.1511,-2.1466,-2.1466,-2.1465,0,-2.1279,-2.1311,-2.1336,-2.1345,-2.1366,-2.1377,-2.1386,-2.1401,-2.1412,-2.1428,-2.1435,-2.1453,-2.1462,-2.1475,-2.1481,-2.1473,-2.1508,-2.1497,-2.1511,-2.1511,-2.1519,-2.1518,-2.1555,-2.1524,-2.1524,-2.1524,-2.1524,0,-2.131,-2.1331,-2.1345,-2.136,-2.1383,-2.139,-2.1413,-2.1421,-2.1434,-2.145,-2.1452,-2.1466,-2.1473,-2.1489,-2.1493,-2.1515,-2.1519,-2.1522,-2.1523,-2.1523,-2.1522,-2.1529,-2.1527,-2.1525,-2.1525,-2.1525,-2.1524,0,-2.1334,-2.1344,-2.1372,-2.139,-2.1395,-2.1411,-2.1426,-2.144,-2.1447,-2.1467,-2.1472,-2.1483,-2.1502,-2.1509,-2.1531,-2.1534,-2.1559,-2.1558,-2.1554,-2.1554,-2.1568,-2.1566,-2.1611,-2.1616,-2.1581,-2.1582,-2.1582,0,-2.1354,-2.137,-2.139,-2.1402,-2.1412,-2.143,-2.1442,-2.1449,-2.1461,-2.1479,-2.1491,-2.1509,-2.1524,-2.1553,-2.1562,-2.1579,-2.1579,-2.1593,-2.1581,-2.158,-2.1579,-2.1578,-2.158,-2.1595,-2.1596,-2.1596,-2.1596,0,-2.1387,-2.1391,-2.1409,-2.1428,-2.1442,-2.1457,-2.1472,-2.1481,-2.149,-2.1503,-2.1523,-2.1534,-2.1557,-2.1575,-2.1592,-2.16,-2.1599,-2.16,-2.1604,-2.1603,-2.16,-2.1602,-2.156,-2.1599,-2.1599,-2.1598,-2.1598,-2.1598,-2.1409,-2.1424,-2.144,-2.146,-2.1472,-2.1485,-2.15,-2.1509,-2.1525,-2.1545,-2.1548,-2.1568,-2.1582,-2.1605,-2.1614,-2.1629,-2.1625,-2.1631,-2.1633,-2.1634,-2.1635,-2.1598,-2.1632,-2.1632,-2.1632,-2.1632,-2.1632,0,-2.1443,-2.1453,-2.1471,-2.1492,-2.1507,-2.1506,-2.1522,-2.1534,-2.1553,-2.1566,-2.1581,-2.1603,-2.162,-2.1631,-2.1648,-2.1658,-2.1658,-2.1662,-2.1661,-2.1663,-2.1637,-2.1632,-2.1662,-2.1662,-2.1662,-2.1662,-2.1662,-2.1662,-2.1462,-2.1486,-2.1492,-2.1522,-2.1532,-2.1553,-2.1562,-2.1575,-2.1585,-2.161,-2.1625,-2.1632,-2.1643,-2.1661,-2.1677,-2.1679,-2.1685,-2.169,-2.1692,-2.1668,-2.1665,-2.1662,-2.1657,-2.1691,-2.1691,-2.1716,-2.1717,-2.1717]}]]